CAPE
1184 1530 1554 1789 1324 1547 1400 769 1445 1590 2050 2068 1898 2035 2362 2082 2322 2523 1483 1550 701 963 980 718 695 844 699 1637 1452 1707 1760 1656 1779 1160 1186 1536 1670 2046 2192 2184 2146 2204 2012 1779 1576 1616 1746 1767 1744 1722 1680 1659 1854 1699 1891 1830 1876 1811 1760 1771 1729 1612 1604 1570 1499 1484 1448 1340 1403 1471 1463 1490 1510 1462 1528 1564 1497 1420 1296 1234 1102 1413 1473 1563 1662
1849 1258 1397 1247 1290 765 1184 1462 1493 1966 2966 2306 1811 2160 1843 1913 2079 1659 1429 1387 1295 1009 782 541 393 682 454 364 1315 1230 1551 1435 1784 1364 1195 1382 1300 1830 2175 2078 2144 2034 2114 1985 1775 1552 1540 1642 1699 1686 1696 1698 1735 1701 1589 1683 1741 1689 1750 1737 1599 1596 1606 1609 1497 1538 1498 1413 1468 1551 1600 1594 1532 1490 1484 1511 1515 1512 1359 1406 1302 1461 1454 1533 1622
1996 2020 1481 1393 1165 1427 1692 1239 2176 2763 2234 2435 1501 1652 1881 1506 1749 1904 1580 1706 1651 972 1342 896 779 459 319 458 468 1156 1427 1562 1390 846 716 1681 1570 1699 2302 2225 2133 2155 2070 2104 1935 1823 1709 1640 1583 1603 1612 1744 1768 1708 1703 1786 1818 1800 1800 1677 1676 1629 1687 1730 1722 1656 1583 1549 1634 1703 1623 1588 1548 1514 1541 1567 1676 1581 1446 1200 1387 1405 1654 1450 1485
3089 2540 2072 1928 1757 1948 1840 2306 2690 2082 1930 2284 1980 2520 2216 1923 1871 2324 1900 1938 1348 1450 1436 988 676 358 234 422 525 550 1101 1465 988 451 767 1132 1822 1823 2000 2286 2263 2262 2278 2126 1987 1909 1750 1898 1903 1754 1553 1598 1720 1796 1677 1807 1786 1792 1706 1685 1656 1614 1748 1754 1779 1802 1728 1548 1582 1648 1586 1473 1631 1759 1791 1652 1662 1610 1480 1659 1453 1403 1439 1519 1444
3536 2535 2087 2559 2693 2801 1896 2058 2676 2364 2336 2301 2964 2278 1760 2356 2204 2210 2222 1456 1341 1446 1201 753 590 363 269 343 379 542 482 1336 1082 489 491 438 1387 1956 2287 2145 2216 2358 2302 2315 2103 2125 2029 1846 1910 1974 1950 1881 1476 1570 1515 1603 1584 1562 1503 1524 1547 1614 1671 1737 1739 1712 1677 1677 1637 1679 1560 1634 1795 1658 1638 1586 1577 1554 1478 1606 1666 1244 1344 1635 1737
3186 3399 2490 1990 2200 2223 2158 2014 2182 2331 2497 3041 2736 1935 1648 1856 1432 1612 1260 2124 1061 788 1156 649 455 380 240 184 367 705 753 465 1019 751 634 573 523 1745 2308 2446 2388 2224 2268 2333 2205 2266 2180 2119 2029 1996 2054 2163 2133 2026 1882 1786 1723 1770 1760 1753 1673 1614 1584 1638 1772 1812 1808 1835 1852 1874 1828 1803 1778 1605 1598 1612 1506 1465 1328 1327 1456 1329 1263 1435 1538
3892 3461 2496 2472 2262 1999 1774 1296 2176 2769 2985 2964 3184 2157 3192 2470 1758 1632 1626 1309 1374 1192 1016 651 354 53 266 280 196 550 454 681 1044 1137 1222 556 501 593 997 1815 2316 2227 2483 2354 2147 2306 2254 2330 2402 2150 2141 2152 2259 2171 2145 2023 2058 1916 1876 1732 1728 1797 1896 1848 1830 1894 1886 1904 1914 1882 1809 1794 1582 1467 1645 1598 1292 1325 1326 1462 1394 1405 1326 1375 1288
4036 3698 3145 2478 2910 3433 2683 3065 2262 2428 2420 2896 2585 2481 3016 3173 2232 1983 1747 1252 1278 1184 1280 600 286 312 200 190 486 511 374 776 1315 1023 742 585 710 672 709 976 1490 2158 2300 2248 2528 2465 2111 2376 2442 2460 2352 2306 2239 2278 2186 2227 2147 2120 2086 1997 1944 1993 1969 1954 1982 1967 1934 1954 1893 1852 1759 1722 1616 1494 1745 1656 1430 1416 1467 1379 1349 1404 1326 1293 1139
4258 3046 3847 2464 2400 2710 2343 2492 2644 2412 2008 3292 2564 2320 3069 1580 3207 1777 1972 2403 1311 774 885 794 553 420 240 253 397 448 632 1479 1308 869 705 1029 559 637 847 1029 1745 1674 1428 2105 2570 2655 2318 2373 2444 2476 2468 2397 2308 2326 2101 2166 2226 2241 2167 2107 2157 2159 2150 2108 2079 2062 1996 1942 1924 1772 1700 1790 1647 1509 1538 1298 1243 1526 1393 1418 1432 1287 1263 1227 458
3768 3628 3373 2803 2428 2417 2990 3293 2567 2393 2782 2024 1969 2318 2033 1733 2488 3079 1803 2545 996 753 683 616 480 427 377 338 543 340 632 829 801 1031 1108 915 732 1024 888 1038 878 680 1330 1300 1365 2703 2461 2416 2482 2546 2491 2482 2421 2400 2326 2204 2307 2288 2234 2245 2231 2176 2174 2082 2037 1937 1814 1755 1796 1793 1637 1669 1533 1633 1610 1344 1235 1441 1422 1386 1289 1207 1259 904 154
4026 3800 3708 2793 2117 2293 2206 2612 1959 2947 2655 2020 1987 2407 2114 2126 2163 1737 2597 1360 935 907 695 196 167 311 186 305 355 712 565 564 850 1306 1052 823 746 785 867 1106 1272 1401 1661 1124 1358 1512 2365 2500 2351 2320 2418 2564 2534 2526 2494 2400 2288 2206 2258 2254 2354 2258 2182 2213 2126 2072 1827 1790 1861 1862 1811 1632 1384 1560 1462 1306 1428 1449 1322 1152 1173 1025 1088 658 85
3862 4224 3644 3274 2564 2041 2846 2347 2426 2805 2906 1708 2315 2785 2757 2984 2955 3030 2009 1882 871 634 496 414 464 289 338 264 595 739 1187 798 936 1086 940 658 530 662 524 398 867 808 847 1023 1434 1458 1932 2156 2178 1535 2042 2757 2708 2619 2634 2557 2498 2421 2380 2411 2345 2023 2067 2013 2019 1934 1969 1979 1820 1756 1721 1470 1527 1509 1512 1524 1556 1282 1187 1104 912 962 1057 112 0
3388 3554 3223 3041 3219 3119 3278 3164 2427 2588 2967 1879 1895 2623 2743 2523 3268 2132 2569 1818 929 572 340 747 497 548 561 650 384 806 852 334 1128 919 979 578 766 558 445 499 393 720 783 510 998 866 1611 1703 1678 1566 1136 2801 2397 2762 2694 2614 2493 2495 2512 2397 2371 2328 2202 2057 1687 1829 1797 1969 1917 1847 1752 1662 1696 1671 1597 1549 1448 1287 1144 1019 929 938 800 78 136
2680 2697 2761 2992 2401 3120 3493 3825 2878 3027 3580 2951 3357 2319 2307 2418 2802 2625 1266 2118 1424 763 398 681 705 631 424 479 533 522 782 800 615 917 868 779 727 773 445 559 568 469 373 532 999 780 875 1051 1266 1223 1467 1732 2191 2940 2702 2556 2444 2428 2280 2161 2204 2208 2163 1765 1857 1904 1786 1868 1840 1720 1724 1750 1761 1571 1512 1451 1342 1256 1102 945 839 761 664 110 82
2551 2512 2692 2652 3227 3225 2957 3936 2552 3319 3410 3232 2900 3120 4013 3485 1849 2136 1994 885 1255 1050 610 554 404 379 538 525 426 587 743 703 622 692 671 540 634 583 488 647 538 624 442 940 696 659 461 666 1158 1306 1518 1451 1411 1418 2158 2321 2451 2805 2508 2392 2312 2427 2241 1968 1756 1744 1826 1808 1850 1776 1702 1602 1602 1543 1468 1320 1170 1136 954 869 816 852 289 114 140
2460 2393 2307 2780 3097 3488 2983 2888 2780 3398 4018 4145 3761 4003 3395 3230 2668 1869 1649 1780 1718 1218 658 335 674 355 451 453 326 346 459 837 518 676 660 775 431 810 463 548 624 664 858 557 741 1019 761 819 1266 1670 1737 1714 1527 1416 1390 1548 2990 2705 2407 2254 2350 2184 1868 1926 1885 1682 1786 1715 1745 1696 1703 1737 1693 1454 1370 1155 988 980 779 759 815 895 507 15 98
2307 2298 2137 2797 3271 3218 3180 3176 3439 3377 3004 3012 3345 2881 2537 2510 2304 2873 1945 1385 1214 1557 1020 544 156 614 934 437 277 257 239 275 393 86 417 539 424 347 417 410 582 909 824 751 702 898 609 815 1408 1477 1764 1949 1688 1485 1501 1807 2699 2505 2810 2543 2621 2240 2215 2249 1921 1665 1652 1637 1518 1471 1708 1798 1498 1355 1222 1020 848 787 741 866 928 813 179 65 134
2476 2493 2357 3027 3163 3318 3255 2987 2754 2788 2881 2625 2674 2683 2838 2701 2318 2239 2452 1627 2470 1884 1151 676 456 483 624 698 833 534 298 481 418 787 589 429 494 274 373 376 711 556 922 938 645 471 581 842 1247 1321 1536 1566 1523 1658 1615 1590 1855 1922 2371 3304 2740 2486 2412 2164 1962 1661 1687 1634 1451 1460 1449 1599 1454 1366 832 884 891 922 948 957 905 770 232 49 42
2050 2372 2437 2540 3394 3243 3101 2738 2703 2772 2522 2569 3003 2799 2342 2207 2642 2300 2955 2912 2579 3123 2250 989 824 823 505 278 413 395 417 457 737 718 824 819 413 400 494 468 606 739 773 581 774 745 696 744 904 889 1331 1360 1470 1465 1625 1690 1363 1450 3300 3177 2694 2385 2196 2139 1911 1697 1551 1786 1636 1292 1220 1414 1416 1328 1034 955 970 992 1009 967 873 516 261 84 55
1721 2044 2503 2560 2817 3323 3170 2821 2585 2597 2445 2132 2354 2060 2252 2741 2584 4098 3476 3097 3367 2638 2712 1085 1333 1142 405 341 271 298 219 80 314 574 889 838 931 524 466 498 437 584 603 646 600 526 368 669 599 673 829 1315 1506 1584 1627 1714 1912 1767 1668 2117 2480 2520 2263 2002 1844 1700 1628 1721 1803 1572 1326 1258 1262 1252 1198 1178 1141 1060 1080 789 623 522 205 55 44
1851 1873 2372 2534 2798 3071 3218 2968 2729 2733 2637 2203 1724 1866 2240 2909 3021 3138 3303 3174 2768 2617 2634 2526 1646 916 768 767 449 649 474 549 673 523 731 829 756 627 313 282 325 453 674 464 499 514 405 605 632 718 630 936 1447 1599 1416 1593 1816 2065 2106 1874 2506 2287 1989 1874 1832 1820 1725 1653 1780 1772 1588 1438 1330 1310 1377 1348 1311 1225 1130 974 742 627 402 80 41
2029 1849 2287 2443 2673 2880 3022 2880 2818 2610 2424 2180 1899 1840 1958 2344 2997 3008 3215 3345 3202 2555 2449 2525 2141 1515 935 1363 1720 1504 1023 610 515 599 422 730 723 481 220 287 582 636 593 543 457 408 417 357 804 873 798 756 829 1410 1438 1436 1692 1773 1818 1938 2602 2251 2100 1968 1870 1847 1734 1652 1684 1782 1822 1619 1525 1527 1598 1654 1415 1249 1011 785 764 672 551 354 198
1932 1760 1986 2258 2374 2794 2764 2683 2570 2800 2592 2484 2309 1933 1865 1892 2127 2673 3312 3432 3472 2947 2341 2260 2431 2332 1526 1646 1833 1410 1053 1025 950 803 646 639 764 697 631 459 564 251 638 523 616 485 519 367 282 440 799 662 838 1088 1323 1550 1304 1548 2766 2051 2234 2160 2062 2112 2075 1883 1775 1761 1683 1805 1863 1802 1733 1697 1676 1665 1414 1229 968 600 449 580 666 494 332
1874 1678 1636 1740 2022 2562 2774 2871 2632 2608 2649 2562 2187 2143 2080 1828 1769 2282 2812 3151 3362 3341 2978 2652 2404 2331 2125 1384 1200 1020 868 734 646 826 229 490 869 685 479 444 639 906 536 845 846 683 597 462 614 663 717 671 943 1192 1240 1316 1416 2162 2756 2214 1964 1805 1950 2115 1979 2126 1937 1746 1726 1692 1764 1771 1712 1777 1736 1466 1346 1184 982 636 482 476 610 635 500
1299 1552 1742 1756 1774 2348 2598 2648 2921 2768 2859 2609 2453 2386 2262 2211 2152 2024 2375 2880 3112 2975 2944 2774 2214 2396 2380 1794 1357 1169 1095 739 602 645 758 927 625 544 507 674 693 650 861 803 925 634 556 585 653 641 694 745 1022 1294 1232 1001 1302 2584 2206 2863 1508 1585 1631 1447 1765 1574 1676 1648 1609 1635 1605 1684 1731 1625 1454 1533 1507 1249 911 778 627 593 595 533 490
960 1356 1259 1980 1725 2050 2616 2606 2874 2968 3028 3114 2824 2663 2719 2598 2378 2386 2098 2424 2815 2752 3098 2832 2759 2496 2175 2262 1777 1177 851 940 913 530 290 544 966 963 1250 1251 841 743 1006 1018 1349 1200 960 632 432 494 704 892 903 1230 1701 1103 1306 2996 1986 2192 2102 1395 1172 1385 1368 1400 1301 1440 1385 1411 1440 1562 1653 1676 1584 1344 1457 1429 1252 1009 813 798 902 801 654
956 1377 1562 1587 2075 2062 2664 2741 2719 2958 3258 3312 3033 2869 2917 2879 2738 2576 2500 2007 2423 2582 2708 2676 2716 2137 2571 2359 2074 1818 1361 1113 744 1032 786 571 678 985 1412 1732 1380 1085 933 1187 1237 1375 902 683 628 671 819 1397 1059 1260 1309 1524 1259 3002 2134 3198 1814 1522 1259 936 1291 1109 1109 1055 1191 1183 1218 1282 1339 1341 1424 1553 1425 1411 1322 1304 1281 1259 1127 1025 1039
1340 1316 1604 1564 2046 2232 2639 2784 2773 2827 3245 3431 3188 2506 2826 3064 3100 2876 2818 2257 2302 2574 2844 2612 2488 2650 2308 2384 2256 2088 1816 1633 1329 1064 1195 1104 1102 1386 1498 1235 1605 1924 1829 1383 1225 1235 1064 1124 824 687 1041 1576 1827 1702 1385 1372 1447 2946 2610 2159 2195 2513 1334 1042 932 1021 915 804 846 1017 974 1010 992 1015 1268 1293 1422 1311 1149 1157 1216 1231 1173 1146 1063
1253 1387 1789 2019 2057 2175 2513 2830 2768 2801 2952 3156 3214 2816 2659 2876 2855 3170 3078 2386 2409 2750 2605 2546 2697 2296 2203 2034 2285 2333 2175 1983 2116 1783 1790 2065 1954 1830 1729 1661 1732 1737 1659 1735 1799 1371 1380 913 883 1518 969 1304 2317 1413 1296 1947 1238 2994 2170 1929 1568 1896 2308 1502 1182 1050 861 749 651 632 782 798 798 756 844 1061 1283 1296 1087 846 776 876 998 1001 888
1017 1080 1712 2324 2333 2509 2345 2322 2270 2407 2363 2650 2952 2896 2819 2807 2560 2795 2974 2806 2386 2594 2828 2596 2405 2400 2176 1934 1870 2013 2187 2273 1937 1827 2072 2593 2593 2552 2280 2201 2273 2053 1956 1967 1934 1652 1273 1141 592 1507 2133 2140 1669 1510 1124 1483 1039 1796 1168 1222 1282 1600 1470 1653 1523 1399 1240 1067 858 642 496 521 552 571 619 688 722 750 750 598 510 493 569 618 666
1473 1590 1972 2422 2598 2555 2434 2327 2252 2272 2541 2474 2694 2809 2911 2903 2495 2566 2923 3065 2984 3012 3160 2969 2748 2303 2339 2214 2061 2063 2180 2104 2049 1763 2318 2455 2828 2832 2680 2600 2632 2712 2758 2731 2572 2515 1419 1167 1130 909 2667 2487 1740 1298 1128 1304 1585 1627 1774 1966 2137 1492 1197 1931 1455 1503 1469 1357 1194 1027 829 578 347 326 396 373 387 396 374 351 332 305 288 265 356
1790 1982 2050 2202 2658 2553 2496 2083 1725 2137 2388 2448 2459 2817 2928 2866 2478 2176 1974 2801 3311 3403 3174 2505 2258 2106 2350 2515 2638 2658 2475 2374 2398 2207 2172 2418 2537 2675 2822 2839 2883 2716 2850 2901 2918 2956 2702 1726 1464 1459 1320 1371 1542 1633 1653 1615 1812 2126 2737 2358 2586 1743 2997 1943 1821 1481 1374 1331 1293 1179 1003 807 618 390 128 208 252 277 308 282 208 179 148 134 135
1952 2138 2293 2494 2422 2470 2272 2098 1567 1856 2370 2453 2350 2441 2889 2976 2926 2706 2262 2401 3138 3320 3408 2997 2124 2065 2378 2666 2852 2931 2804 2566 2417 2400 2153 2199 2559 2811 2834 2934 2876 2848 2828 2966 2966 2944 3144 2872 2597 2372 2179 2118 1876 2022 2054 1874 2074 2488 2611 2632 2648 2469 2426 2314 2358 1812 1555 1347 1183 1080 967 861 724 582 2 31 96 160 230 251 206 69 16 19 33
2118 2106 2381 2257 2410 2673 2322 2187 1889 1744 2370 2466 2166 2148 2612 2938 3184 2744 2773 2627 2967 3391 3237 3309 3361 2845 2524 2825 3054 2886 2947 2902 2719 2477 2278 2073 1751 2457 2902 2894 3004 3132 3207 3149 3100 3196 3176 3055 2807 2700 2823 2768 2641 2724 2729 2849 2822 2861 2565 2653 2565 2893 3146 3009 2791 2615 1971 1748 1581 1374 1132 871 679 534 290 322 330 324 326 346 360 358 370 364 374
2424 2270 2524 2495 2540 2921 2694 2272 2179 1986 2518 2400 2334 2257 2530 2830 3070 2649 2186 2402 2671 3214 3345 3378 3438 3354 2955 2866 2904 3082 2764 2629 2765 2808 2522 2388 2276 2233 2165 2519 2869 2931 3036 3229 3319 3313 3336 3291 3044 2630 2230 2426 2716 2858 2972 2974 3495 3365 3486 3370 2944 2616 2534 2529 2820 2793 2334 2089 1884 1693 1508 1259 1116 955 791 648 0 0 197 390 406 392 416 430 451
1953 2425 2324 2632 2770 3123 3124 2663 2574 2410 2353 2502 2812 2546 2382 2553 2930 3072 2708 2300 2488 2922 3091 3054 3058 3113 3045 3112 2859 2602 2468 2562 2762 2906 2902 2653 2539 2570 2352 2235 2658 2808 3064 3179 3344 3536 3606 3554 3752 3448 3242 3000 3112 3008 3016 3012 2904 3050 3154 3511 3508 3429 3143 3213 3224 2919 2332 2250 2195 2258 2312 2236 2052 1847 1767 1718 1552 1335 1132 837 621 649 681 712 753
1762 2388 2698 2764 3065 3350 3296 3021 2991 2946 2716 2887 3022 2754 2455 2524 2806 2986 3016 2774 2740 2930 3025 3092 3015 3111 3137 2943 2906 2865 2803 2675 2736 2960 2930 2969 2958 2882 2923 3004 3138 3135 3259 3371 3540 3578 3791 3706 3689 3789 3779 3799 3920 3875 3856 3752 3726 3767 3818 3992 3613 3555 3636 3473 3368 2962 2988 2861 2695 2572 2528 2460 2432 2376 2323 2214 2283 2384 2322 2085 1904 1628 1221 1304 1311
1851 1743 2732 2864 2892 3461 3624 3444 3237 3379 3323 3342 3354 3133 2408 2334 2711 2927 2835 2854 2890 3149 3150 3057 3167 3262 3059 3216 3078 2874 2768 2748 2727 2778 3010 3158 3236 3182 3472 3558 3478 3576 3918 3914 4006 3889 3721 3775 3630 3504 3521 3418 3637 3814 3911 3736 3501 3629 3583 3527 3586 3564 3777 3530 3310 2943 2696 2777 3144 2719 2558 2485 2494 2468 2436 2469 2510 2528 2502 2496 2446 2363 2260 2102 1852
2008 1701 2161 3097 2934 3323 3854 3759 3477 3631 3667 3579 3814 3723 2956 2375 2501 2840 2614 2579 2868 2972 3121 3059 2900 3047 3201 3254 3138 3076 2981 2983 2904 2872 3063 3364 3414 3400 3638 3940 3955 3907 3920 3982 3841 3646 3674 3583 3501 3510 3551 3482 3548 3659 3648 3643 3517 3279 3140 3096 3450 3642 4094 3888 4114 3393 3150 2959 3070 2876 2880 2606 2638 2434 2435 2508 2638 2717 2673 2588 2577 2467 2337 2273 2280
2117 1825 1703 2712 3121 3233 3644 3824 3695 3705 3886 3862 3925 3975 3770 2893 2440 2666 2964 2694 2541 2789 2668 2845 2798 2396 2457 2655 2480 2587 2857 3068 3120 3370 3314 3130 3268 3531 3813 3952 4125 4150 4078 3686 3658 3795 3768 3637 3571 3510 3644 3902 3863 3496 3284 3369 3540 3670 3397 3392 3625 3786 4111 4712 4241 4052 4184 4112 4032 3176 2932 2887 2923 2941 2790 2749 2779 2926 2950 2857 2710 2613 2526 2413 2267
2245 1978 1752 1844 2878 2948 3065 3674 3678 3523 3660 3803 3708 3859 4109 3669 3028 2576 3061 3117 2666 2483 2622 2509 2647 2550 2138 1891 1916 1969 2604 3706 3464 3676 3436 3686 3361 3520 3828 3918 4304 4306 4365 4174 3846 3880 3851 3684 3663 3726 3537 3594 3676 3701 3190 3237 3606 3498 3318 3217 3752 3872 3947 3987 4643 4296 4086 3904 3525 3542 3266 3267 3353 3775 3353 3781 4173 3287 3189 3082 2948 2841 2721 2569 2440
2737 2397 2144 1852 2056 2914 2990 3324 3511 3428 3336 3538 3515 3296 3577 3938 3426 2740 2739 3227 3260 2667 2411 2461 2283 2422 2431 2094 1531 2135 2676 3816 4380 3502 3512 3646 3617 3724 3327 3224 3591 4047 4209 4241 4076 3921 3827 3732 3474 3356 3355 3436 3327 3412 3238 3086 3260 3298 3439 3906 3890 3990 4386 4347 4686 4602 4528 4174 4009 4405 4350 3599 3416 3610 3824 3834 3308 3765 3882 3441 3019 2802 2663 2560 2431
3247 3367 2708 1928 1776 2188 2829 2920 3130 3184 3116 2963 3054 3170 3317 3410 3591 3365 2939 3032 3426 3431 2939 2729 2684 2212 2134 2400 2465 2457 3879 3552 4186 3480 3433 3457 3523 3264 2962 2600 2698 3523 3123 3443 3853 3938 3831 3630 3471 3504 3544 3557 3442 3401 3278 3141 3144 3404 3829 4144 4063 4218 4498 4504 4376 4829 5048 4681 4555 4318 4030 3984 3905 4058 4171 4033 3288 3482 3063 3410 2822 2761 2500 2339 2233
3541 3249 2784 2501 2644 2164 2424 2783 2764 2916 3052 2514 2749 3061 3142 3270 3391 3710 3085 2806 2903 3306 3485 3086 2915 2871 2446 1949 1768 1959 2132 2796 2946 4051 3088 2797 3039 3059 3002 2812 2543 2258 2050 2616 2886 3006 3131 3128 3305 3416 3344 3408 3567 3670 3452 3362 3869 4047 4134 4130 4469 4506 4522 4472 4398 4356 5106 4821 4670 4358 4065 4168 3990 4020 4120 3970 3599 3124 2621 2809 2536 2504 2362 2206 2143
3155 3649 3538 2965 2898 2694 2422 2794 2721 2697 2799 2283 2553 2824 2951 3074 3126 3302 3057 2958 2735 2684 3077 3357 3131 3018 3004 2628 2110 1680 1676 3014 3541 3205 4234 4543 3823 3431 3071 2830 2634 2458 2247 2116 1982 2253 2682 2857 3198 3304 3416 3595 3542 3595 3709 4149 4425 3762 4215 4134 4453 4623 4482 4305 4158 4171 4536 4872 4441 4110 4036 3980 3974 3732 3253 3601 3362 3166 2746 2418 2394 2388 2167 2109 2101
3677 3710 3472 3306 3210 3406 3010 2902 3194 2728 2833 2307 2415 2649 2784 2818 2857 3030 3502 3237 2959 2734 2845 3150 3270 3208 3274 3308 3083 2711 2570 2698 3161 3319 3762 4030 4779 4419 3871 3561 3342 3295 3240 3054 2847 2591 2343 2455 2867 3204 3447 3622 3731 3752 4031 4112 4272 4327 4278 4159 4298 4330 4273 4270 4184 4176 4208 4057 4187 4059 3984 3898 3793 3471 3254 3090 2801 3041 3140 2902 2361 1725 1644 1698 1753
3808 3984 3764 3495 3443 3438 3200 2947 3098 2946 2704 2566 2527 2510 2580 2628 2645 2602 3247 3157 3178 3222 3313 3515 3660 3557 3651 3799 3894 3602 3634 3765 3576 3709 3919 4137 4309 4520 4995 4856 4572 4576 4528 4185 3900 3546 3295 3173 3010 3072 3561 3872 4130 4114 3955 4057 4342 5192 4413 4294 4128 4034 4034 4065 3929 3908 3854 4072 4354 3861 3602 3169 2607 2703 2684 2285 2108 2057 1875 1902 1638 1586 1569 1717 1757
3691 4002 4009 3554 3571 3679 3526 3181 2977 3026 2925 2467 2557 2593 2592 2498 2469 2369 2946 3105 3144 3136 3230 3461 3683 4003 4111 4110 4267 4392 4348 4400 4311 3903 3971 4395 4548 4988 4957 4784 4731 4495 4174 3836 3525 3560 3575 3378 3085 3261 3440 3388 3546 4177 4689 4107 4024 4062 3473 3386 3434 3829 3839 3879 3841 3222 2790 2882 3050 3220 2748 2746 2672 2316 2336 2002 1547 1624 1808 1655 1377 1346 1355 1396 1469
3381 3681 3982 3588 3644 3710 3739 3670 3238 2790 3035 2645 2440 2610 2608 2581 2443 2391 2898 2966 3152 3379 3462 3420 3486 3713 3921 4124 4300 4158 4321 4718 4584 4133 3873 3666 4149 3996 4049 3995 3919 3830 3760 3576 3744 3252 3152 3232 3274 3213 2978 2997 3045 3101 3168 3253 3347 3326 3359 3334 3275 3451 3639 3692 3349 2785 2625 2232 1957 2484 2036 2241 2191 1830 1774 1823 1878 1527 1380 1588 1798 1331 1271 1281 1421
2976 3318 3772 3764 3483 3504 3615 3794 3511 3336 3119 4412 2482 2475 2563 2544 2480 2828 3046 3049 3198 3452 3825 3838 3847 3953 4060 4008 4522 4418 4516 4472 4104 4207 4088 3880 4227 4125 4222 4118 4077 3899 3942 3612 3409 3652 2883 3066 3090 3240 3308 3355 3400 3396 3464 3441 3398 3400 3442 3407 3421 3438 3388 3108 2071 2092 2215 2133 2228 1844 2230 1743 1652 1810 1732 1354 1353 1480 1190 1071 1240 1448 1500 1787 1625
2882 3052 3291 3538 3572 3416 3288 3597 3704 3475 3128 3436 2690 2538 2452 2440 2420 3098 3300 3177 3275 3451 3633 3934 4039 3936 4168 4279 4149 4401 4377 4660 4211 4078 3977 4007 4286 4388 4223 4017 3725 3578 3550 3535 3465 3216 3432 4324 4408 4079 3987 3855 3845 3902 4027 3896 3687 3430 3399 3409 3479 3545 2876 2388 2162 2351 2066 1828 1680 2074 2055 2090 1729 1195 914 907 1126 1141 1164 1138 870 1293 1440 1662 2708
Wind_Speed
4 5 7 7 9 11 9 10 8 11 10 13 14 8 11 10 13 17 11 12 9 11 10 10 11 11 11 11 11 11 12 11 11 10 9 10 11 11 13 13 13 12 12 12 11 11 10 11 10 11 11 11 12 12 13 13 14 15 15 15 16 16 15 15 13 13 12 11 10 10 8 7 7 7 6 6 6 5 5 5 4 4 4 5 5
5 5 6 8 9 9 10 10 8 8 8 7 14 10 11 12 14 11 10 13 14 9 11 10 12 11 12 11 12 11 12 12 12 12 9 11 10 11 14 13 13 12 12 12 11 11 12 11 12 11 12 11 12 13 13 14 15 16 16 17 17 17 15 14 14 12 12 11 9 8 7 6 6 5 5 5 5 4 4 4 3 3 4 4 5
5 6 5 7 8 10 10 10 8 8 9 15 10 8 11 13 10 11 9 14 11 10 10 11 11 13 11 12 12 12 12 12 12 12 10 10 11 11 13 14 12 12 12 12 12 12 12 12 12 13 13 13 14 14 15 15 16 16 17 16 17 16 16 15 15 14 13 12 10 8 7 6 6 5 4 4 4 3 3 2 3 4 5 5 6
8 7 6 9 10 11 13 8 12 3 7 10 11 9 12 11 11 11 10 13 11 10 10 10 11 11 12 10 11 12 12 13 13 11 10 9 10 10 11 12 13 12 13 13 13 14 13 13 12 13 14 15 16 16 16 16 16 17 17 17 17 17 17 18 17 16 14 13 12 10 9 8 6 5 4 4 4 3 3 3 4 5 6 7 7
7 6 6 7 8 9 12 10 16 7 10 8 10 13 17 12 14 9 13 9 11 9 10 8 10 11 13 9 10 11 11 12 11 12 10 10 10 9 10 11 11 13 14 14 15 15 15 14 14 15 14 15 16 17 17 17 17 18 18 18 18 19 19 20 19 19 18 17 16 15 12 10 9 7 6 5 5 4 4 6 6 7 8 9 9
5 8 10 6 6 7 8 10 10 10 7 9 11 9 11 13 12 11 8 15 7 5 11 9 8 10 10 8 10 10 11 10 11 9 11 10 8 7 11 11 11 12 12 14 15 15 15 15 15 15 15 16 16 16 16 16 16 16 16 18 18 19 20 20 20 20 21 22 21 20 18 16 14 11 9 8 6 6 7 7 8 9 9 10 12
7 9 9 12 10 10 8 11 10 11 9 4 7 9 9 8 11 9 7 9 7 6 6 7 7 nan 11 9 8 9 9 9 9 8 8 7 9 8 9 9 10 10 10 12 15 17 16 15 15 15 15 15 17 16 17 17 17 18 19 20 20 21 21 22 23 24 23 23 23 22 21 19 16 15 13 11 10 10 10 10 11 11 12 13 17
6 9 10 8 10 10 7 11 8 8 13 6 5 7 7 7 5 13 7 5 6 6 4 5 5 6 7 7 7 8 7 8 7 7 5 7 7 7 9 8 9 10 8 11 11 13 16 15 15 15 15 16 16 16 16 16 16 17 18 20 20 22 22 22 22 22 23 23 23 22 21 19 17 15 14 13 12 12 13 13 13 13 14 17 19
7 8 10 8 9 9 12 10 7 6 9 8 8 8 9 6 9 10 6 7 6 4 5 5 5 5 5 4 6 7 6 6 6 4 3 5 5 6 7 7 7 5 10 9 10 11 14 16 16 16 17 17 16 16 16 16 17 18 19 20 21 21 21 21 21 21 21 22 22 21 20 19 18 16 15 14 14 14 14 14 14 14 16 19 18
7 9 13 11 12 8 13 11 8 5 10 6 10 10 8 8 8 10 8 8 5 5 4 5 5 4 4 4 6 5 5 5 5 5 2 4 6 5 6 6 7 7 9 8 7 11 11 15 17 17 17 16 16 16 16 16 17 19 20 20 20 20 20 20 21 21 21 21 21 21 20 19 19 18 18 16 15 15 14 15 15 17 18 18 18
7 10 8 13 11 5 11 14 9 8 9 4 8 12 10 10 9 8 10 8 6 7 6 4 4 4 3 2 4 7 6 5 5 4 4 4 3 5 4 6 6 6 7 7 7 8 10 10 11 11 13 17 16 16 17 17 18 19 19 20 19 18 18 18 18 19 20 21 20 20 21 21 20 18 18 18 17 17 16 16 17 18 19 19 nan
8 8 9 12 13 11 11 12 13 11 9 6 10 8 10 10 14 10 8 9 7 6 4 5 6 7 7 5 5 4 6 6 5 4 4 4 4 6 6 2 6 6 5 8 7 7 7 9 10 10 9 14 17 17 18 18 18 18 19 19 19 18 18 17 18 18 19 20 21 21 21 21 21 20 19 18 18 19 19 18 19 20 21 21 nan
9 9 9 10 12 11 9 13 13 11 11 7 7 9 8 8 12 10 9 9 8 8 7 8 6 5 6 7 5 7 4 6 6 5 5 5 3 6 5 4 2 4 5 4 4 7 6 8 8 7 7 9 14 19 19 18 18 19 19 19 18 18 18 18 19 19 20 22 21 22 22 21 21 21 21 20 20 20 20 21 21 22 22 nan 24
10 10 10 10 11 11 11 12 15 12 11 10 10 6 6 8 12 7 11 10 8 11 6 6 8 8 7 7 7 6 7 8 7 6 7 6 5 4 4 6 4 4 4 3 5 5 9 9 9 8 6 9 11 12 14 16 18 21 21 20 19 18 18 19 19 20 21 20 21 22 22 22 22 23 23 23 23 23 23 24 26 26 25 26 nan
11 12 11 11 11 12 11 11 13 10 13 12 9 10 10 10 10 12 9 9 11 9 9 12 9 7 8 9 8 7 8 8 8 8 8 6 8 6 5 5 4 3 4 5 5 7 6 6 4 5 6 7 8 9 12 15 16 23 21 19 19 19 19 20 20 21 22 22 22 22 22 23 24 25 25 25 26 25 25 27 29 28 28 28 28
11 11 11 10 10 11 12 9 11 8 12 11 12 10 11 11 12 10 8 13 14 8 9 9 12 8 10 9 10 9 9 8 8 9 9 8 8 8 5 7 6 5 6 7 6 6 6 7 7 7 7 8 7 8 9 10 14 20 22 21 20 19 21 21 21 21 22 23 22 23 23 24 25 26 27 27 28 27 27 28 29 29 29 nan nan
10 11 12 9 9 10 10 10 9 10 11 10 10 12 10 10 11 6 11 6 17 6 10 8 8 10 9 11 9 8 7 6 6 nan 8 9 8 9 5 9 8 6 8 8 6 9 11 9 9 9 8 8 9 10 11 11 14 15 18 22 23 23 23 23 22 22 22 23 24 24 26 27 28 28 29 29 29 29 28 28 29 28 29 nan 31
10 10 10 8 8 9 9 10 9 10 11 12 11 11 9 13 7 10 9 11 10 10 5 9 5 5 7 8 8 8 8 9 10 6 9 9 10 10 9 12 9 9 9 11 11 12 11 10 10 10 10 11 11 11 11 11 11 12 14 19 25 23 23 23 23 23 24 24 25 27 28 30 30 31 31 30 30 30 30 29 29 29 29 nan nan
9 9 9 8 7 8 8 10 10 9 10 12 11 11 8 9 8 8 9 7 7 8 6 6 4 7 8 10 6 11 9 11 9 9 7 7 10 11 9 11 12 11 13 13 12 12 11 10 10 12 12 12 12 13 12 12 12 10 10 14 21 22 23 24 25 26 26 26 27 28 29 30 31 32 32 31 31 31 31 31 31 30 29 nan nan
10 9 9 9 8 8 8 10 11 11 10 12 13 12 9 7 8 7 6 6 6 7 7 5 5 8 9 9 9 8 9 nan 11 9 8 7 6 11 10 10 11 12 11 12 11 13 8 9 12 11 12 13 13 12 13 13 14 15 16 19 22 24 24 26 27 28 28 28 29 29 29 30 30 32 32 32 33 33 33 33 32 31 30 nan nan
11 9 9 10 8 8 8 10 10 11 11 11 12 11 10 8 7 7 7 7 7 7 8 8 9 6 6 9 9 8 9 9 7 8 7 6 7 8 9 8 11 9 8 9 10 9 11 14 12 11 10 11 13 14 14 14 15 15 17 24 24 25 26 27 28 29 29 29 29 30 30 30 31 32 33 33 33 34 34 34 34 33 32 nan nan
9 11 8 10 9 8 8 9 9 10 10 11 10 10 9 9 8 8 8 8 8 8 8 7 7 7 5 6 6 7 7 7 8 7 5 5 9 8 8 10 9 7 9 12 8 9 10 9 13 15 15 14 15 15 15 15 14 16 19 27 27 27 28 28 29 30 30 30 30 31 31 32 32 33 34 34 34 34 35 35 35 35 35 35 35
9 9 10 9 9 8 8 7 8 7 8 10 9 9 8 8 8 8 8 8 7 8 8 7 6 5 6 4 6 6 5 6 6 7 8 7 8 9 10 9 10 10 9 7 8 11 9 10 11 13 12 13 14 14 14 15 18 17 21 27 28 28 28 30 29 31 31 31 32 32 33 33 34 34 34 34 34 34 35 35 36 36 36 37 37
9 9 9 8 7 7 8 6 5 6 6 7 7 7 8 6 6 6 6 6 6 7 7 6 6 4 7 6 6 7 5 6 7 6 7 9 8 9 9 10 11 10 5 9 11 11 11 12 14 15 15 15 14 14 15 15 17 22 23 26 27 28 29 30 32 32 34 34 34 34 34 34 34 34 33 34 33 34 34 36 37 38 38 39 39
7 8 7 7 5 5 5 5 4 4 5 5 6 7 7 7 5 5 5 4 4 4 4 4 5 6 5 6 7 7 5 5 8 9 7 4 7 9 11 10 9 10 9 7 8 8 10 12 13 14 14 14 14 14 16 17 17 23 24 24 29 29 30 32 33 35 35 35 35 35 34 33 33 32 32 32 32 33 34 36 37 38 39 39 40
6 5 5 4 4 2 3 3 3 2 3 4 4 4 4 6 5 5 5 3 3 2 2 4 5 6 7 6 6 6 6 5 5 6 8 8 8 9 9 10 11 10 7 10 9 11 12 13 13 12 12 12 13 14 16 17 17 24 27 23 29 32 33 33 35 35 36 36 36 36 36 35 36 35 35 34 33 34 35 36 36 37 38 39 39
6 4 3 2 3 2 1 2 2 2 2 2 3 3 3 4 5 4 4 3 2 3 4 6 6 7 7 6 6 6 5 6 8 7 6 8 8 8 9 10 10 10 9 7 9 10 10 9 10 12 14 13 13 13 15 16 17 20 26 23 22 32 34 36 36 37 37 37 37 36 37 37 37 37 37 37 37 36 36 36 37 37 37 37 37
5 4 1 1 1 2 1 2 2 2 2 3 4 4 4 4 4 4 4 3 3 5 5 7 8 8 7 5 4 5 4 4 5 5 5 6 8 8 8 8 9 10 8 8 8 9 10 11 11 12 11 12 13 14 16 17 18 21 24 22 22 25 35 36 37 37 37 37 37 37 38 38 39 39 38 38 38 38 37 38 37 37 37 37 37
6 4 2 0 0 2 3 4 4 5 6 7 8 8 8 8 8 8 8 7 6 7 8 9 9 9 9 8 5 3 3 4 4 4 4 6 7 6 7 8 8 9 10 9 8 9 9 9 10 9 11 11 13 15 16 18 19 20 22 23 24 24 31 37 37 36 36 37 37 37 39 40 40 40 40 38 38 38 39 39 38 38 38 38 39
8 5 3 0 2 3 5 7 8 10 11 11 10 11 10 9 9 9 9 8 7 7 8 9 10 9 9 9 7 6 3 1 0 2 2 2 3 5 6 6 6 9 10 10 10 10 10 11 12 9 11 12 14 16 18 20 23 25 24 23 24 25 30 36 37 37 37 37 38 39 40 41 41 41 41 41 41 42 42 41 40 39 39 40 40
9 8 5 3 4 5 7 9 10 10 10 10 9 8 8 7 7 7 6 6 6 6 6 7 8 8 8 8 7 6 4 2 2 2 2 3 1 3 5 6 7 8 9 10 11 9 9 9 10 9 10 15 15 17 19 21 23 26 24 23 23 25 26 28 35 37 38 39 40 41 42 43 43 42 42 42 44 46 45 43 42 42 41 41 42
8 7 6 4 5 6 7 9 9 9 8 7 6 6 5 5 4 4 4 5 4 4 5 6 6 7 8 8 8 6 6 4 3 1 3 4 3 2 3 5 6 8 8 9 11 11 9 11 11 12 16 15 16 18 20 20 19 24 22 21 22 22 24 25 32 37 39 41 42 42 44 44 44 43 43 43 45 46 44 43 43 43 42 43 43
9 8 7 6 7 7 7 8 8 6 5 5 4 3 3 3 3 3 2 4 5 4 4 4 5 6 7 7 7 8 7 7 5 2 2 4 4 3 4 4 5 7 8 8 10 11 9 10 12 14 14 15 16 16 17 19 19 20 23 22 24 24 25 26 26 36 40 41 42 42 43 43 43 43 nan nan nan 44 43 43 43 nan nan nan nan
9 8 7 8 9 8 8 7 7 5 3 3 3 2 2 2 3 2 3 3 5 5 4 5 5 4 6 7 7 8 8 8 7 5 2 4 6 4 3 4 6 7 6 8 9 9 10 9 11 13 14 15 16 16 17 18 19 17 19 19 21 24 25 25 27 27 39 42 42 42 43 43 43 43 44 44 44 43 43 44 44 44 44 45 45
10 10 9 8 10 10 10 10 8 6 4 1 1 1 2 3 3 3 4 5 5 5 6 6 6 7 7 7 8 8 8 9 8 7 5 6 9 11 9 6 5 6 7 7 7 9 10 10 10 13 13 13 14 14 15 16 17 19 20 21 22 23 23 25 26 26 29 38 41 42 43 44 44 45 46 47 nan nan 46 47 47 47 47 48 48
11 12 11 9 10 11 11 11 9 8 6 3 1 1 2 3 3 3 3 4 5 6 6 6 7 8 8 8 8 8 8 8 7 5 4 5 8 10 10 9 8 8 8 7 6 7 8 10 9 10 10 10 11 12 13 15 17 17 19 20 23 24 26 26 27 27 27 31 39 42 43 44 46 46 47 48 49 49 49 49 50 50 50 51 51
12 13 13 12 11 11 12 12 11 9 7 5 3 2 3 3 3 4 4 4 4 5 6 6 6 8 9 9 8 8 8 7 6 5 3 5 7 10 10 9 8 7 7 6 6 7 9 11 10 8 8 10 11 13 15 17 17 18 20 22 23 24 27 28 29 29 30 32 38 44 45 46 48 49 49 49 50 51 52 52 52 52 52 52 52
13 14 14 13 13 12 13 14 13 11 9 6 4 3 4 4 5 4 5 5 5 5 6 6 7 8 8 8 8 7 7 7 6 4 3 5 7 9 10 10 10 8 7 6 6 8 10 10 10 9 8 11 11 12 13 15 16 16 18 20 23 24 25 26 28 28 27 26 25 31 39 42 44 47 48 50 52 52 53 54 54 54 53 51 51
13 14 15 14 14 14 14 15 14 12 10 7 6 5 4 5 6 6 5 6 6 5 6 7 8 9 9 7 7 7 7 6 5 4 3 4 7 10 10 10 9 9 7 6 6 8 8 9 9 8 8 9 10 11 11 12 14 17 19 20 24 24 27 27 28 26 25 24 26 30 30 29 31 37 48 52 51 51 51 52 52 54 53 52 50
14 14 15 16 15 15 15 15 15 14 10 7 6 7 7 6 6 7 7 6 7 6 6 7 7 7 8 7 7 6 7 6 4 3 3 4 7 9 9 9 9 8 7 7 7 7 7 7 7 6 5 4 6 9 11 14 15 17 19 18 19 20 21 23 24 24 25 26 27 26 28 33 36 39 40 45 48 48 49 48 48 48 49 50 50
16 15 15 17 16 14 14 15 14 13 10 8 8 9 10 8 6 7 8 8 7 6 6 7 7 6 5 5 5 5 4 5 6 2 3 6 8 9 10 10 9 8 8 7 7 7 8 6 6 4 5 5 6 7 9 11 12 12 13 16 19 20 20 21 24 27 27 26 26 26 28 28 29 30 31 32 37 44 45 46 42 45 46 46 47
17 17 18 18 16 16 15 14 13 13 10 10 11 14 13 9 9 7 8 8 7 7 6 6 6 6 5 4 3 4 3 1 4 6 4 2 7 10 11 11 9 9 8 8 7 8 7 6 5 4 3 4 4 5 6 8 10 12 14 16 17 17 19 21 24 27 29 29 27 27 29 29 27 28 30 31 30 32 34 38 39 38 42 48 48
18 18 18 17 16 17 15 14 12 12 11 11 16 17 16 11 9 9 8 8 8 7 7 7 6 5 4 3 2 2 0 3 4 5 3 1 1 4 8 9 9 9 9 9 9 9 8 6 5 3 2 3 3 4 6 7 9 10 11 13 15 16 18 20 21 25 32 28 24 24 27 28 27 28 31 32 29 28 27 26 32 43 41 44 49
21 18 17 17 18 18 17 14 13 12 12 13 21 20 18 14 10 9 9 8 8 8 7 7 6 5 4 2 2 3 3 2 2 3 4 2 1 1 3 4 5 5 5 6 8 9 7 7 5 2 2 1 2 5 7 7 8 9 11 13 16 18 19 21 23 24 26 25 22 23 25 28 29 29 29 29 28 27 25 24 21 27 39 42 46
22 20 18 18 19 19 18 16 14 14 13 19 23 23 20 17 13 9 8 9 8 8 8 7 6 5 4 1 2 4 6 2 1 2 3 3 2 2 1 1 3 3 4 3 3 3 5 4 3 2 1 2 2 6 9 8 8 9 11 14 16 17 19 21 23 24 24 25 23 23 25 27 28 28 28 29 29 28 26 24 23 25 33 38 42
23 21 18 19 20 20 20 19 18 17 15 25 24 24 21 19 16 11 8 8 8 8 8 7 6 6 5 2 2 4 4 5 4 2 2 4 6 6 5 6 6 3 1 2 2 3 2 2 1 1 2 5 6 8 9 10 11 12 12 13 13 15 18 20 21 24 25 27 27 24 26 27 27 25 28 29 30 32 32 30 30 27 30 33 37
23 22 20 20 20 20 20 20 20 19 17 28 26 26 23 21 18 14 9 7 7 7 7 7 6 5 5 3 1 3 4 4 4 3 3 4 5 6 7 6 6 6 6 6 6 7 9 6 5 6 4 7 9 10 13 16 16 16 15 14 14 15 16 19 24 28 29 33 32 28 27 27 27 26 27 27 27 28 28 26 26 27 31 35 36
24 24 23 22 21 21 21 20 20 20 22 30 27 27 25 22 21 15 10 8 7 7 8 6 6 5 4 2 2 2 3 4 4 5 4 5 6 6 7 7 9 9 9 8 8 12 12 11 10 10 9 11 14 14 14 14 14 15 14 15 17 18 18 20 23 24 28 30 31 31 31 31 31 27 25 25 27 28 28 27 24 24 28 36 38
25 24 24 23 23 23 22 21 19 21 21 29 29 27 26 24 23 16 12 9 8 9 8 8 7 5 4 3 1 3 3 4 5 8 6 5 4 6 8 9 11 11 11 11 10 12 12 13 14 16 16 14 12 10 10 13 19 19 19 20 22 22 21 20 20 24 28 30 30 31 31 32 31 30 26 24 26 28 30 31 30 29 29 35 40
25 24 24 24 23 23 22 21 21 22 21 30 30 29 26 27 23 18 15 11 10 10 9 8 7 5 5 5 2 1 3 5 7 11 10 9 3 4 7 9 9 9 10 11 11 14 17 14 12 12 12 11 11 12 12 12 15 22 26 25 24 23 24 25 23 23 26 30 33 32 32 32 31 32 29 26 26 29 31 32 32 32 31 43 46
24 25 25 25 23 22 21 20 23 21 20 28 30 30 28 27 22 19 17 13 12 11 11 10 8 6 5 5 6 3 3 6 13 14 13 10 4 5 6 8 8 9 11 12 13 12 13 15 18 17 16 17 17 19 20 19 20 23 28 29 27 27 27 27 27 27 27 31 34 36 33 33 32 31 31 30 29 28 29 31 32 34 35 35 41
Wind_Direction
94 104 117 124 119 116 126 111 145 124 149 129 121 83 96 81 91 94 95 98 84 84 98 98 95 96 99 92 85 89 92 87 85 75 63 69 69 59 51 53 57 61 66 67 66 66 67 65 61 60 57 53 52 52 51 49 48 48 45 42 41 39 38 36 36 37 40 37 39 45 46 48 48 46 50 53 52 54 51 42 20 13 355 351 348
149 142 124 120 115 114 112 131 128 132 121 97 87 131 109 85 87 108 114 110 108 100 88 93 96 103 103 102 98 91 85 86 86 84 70 73 74 66 52 56 57 58 64 69 71 68 64 60 60 56 55 53 52 49 48 44 44 45 44 42 41 41 40 37 40 41 37 40 38 41 43 45 48 48 49 51 50 47 48 31 11 1 340 341 333
154 135 137 116 120 119 130 132 138 132 137 106 115 91 86 99 111 97 109 90 86 87 97 97 105 100 105 100 100 93 92 88 83 81 68 71 74 70 64 54 55 58 61 65 65 68 67 68 55 55 53 51 49 49 47 46 45 45 45 46 45 46 44 45 44 46 43 41 43 40 41 41 42 39 43 46 43 39 40 15 7 345 335 334 334
154 142 140 144 141 146 145 128 107 90 73 124 134 130 117 120 116 116 95 94 96 94 99 104 110 114 100 105 98 99 95 89 86 94 97 74 74 73 71 66 54 53 54 56 57 56 58 58 63 62 55 52 51 53 52 49 49 48 48 49 51 50 50 50 51 51 52 52 51 51 47 47 42 42 42 45 44 28 15 343 349 339 330 334 333
147 147 145 146 135 144 115 139 119 148 149 147 166 160 137 130 117 122 104 96 89 93 98 103 106 114 113 115 116 105 101 96 92 82 82 80 71 76 73 68 62 53 52 53 52 52 54 51 56 58 58 60 58 53 52 52 51 52 53 52 53 54 54 54 54 54 53 53 51 51 52 50 47 48 44 41 40 27 360 347 347 334 339 327 328
146 140 128 117 113 108 122 125 124 146 160 171 146 141 129 130 147 136 123 102 124 110 99 100 103 111 121 124 112 113 101 98 97 94 88 85 89 66 65 66 64 65 61 51 53 55 50 52 51 52 54 57 59 59 58 61 58 58 56 57 59 58 57 56 56 55 51 49 47 46 45 44 44 41 38 34 28 23 360 349 342 337 333 328 324
152 139 142 145 144 128 140 115 143 163 148 151 136 128 128 141 124 107 156 144 112 133 101 107 120 nan 128 127 119 104 109 105 97 92 94 103 89 83 77 76 74 61 57 56 53 49 49 51 50 49 51 55 59 57 57 57 58 59 58 57 54 53 54 52 50 48 47 43 41 40 40 40 39 38 35 30 15 15 358 351 342 338 332 330 326
148 137 144 133 116 120 121 125 158 162 133 139 123 122 128 126 169 123 150 156 161 133 124 119 122 114 118 118 107 109 108 105 89 84 81 76 83 88 87 85 77 77 54 63 60 51 45 46 49 50 48 51 54 54 56 55 58 55 55 53 51 51 50 48 46 44 41 37 35 35 36 36 36 34 30 24 16 6 359 351 342 339 335 333 330
144 135 116 115 115 119 123 130 137 118 99 140 141 120 117 147 131 130 162 140 166 163 158 140 139 120 116 127 131 122 118 111 106 97 110 115 94 71 86 85 96 87 79 54 47 55 37 38 42 44 46 47 46 49 49 51 50 53 50 48 47 45 42 41 39 36 34 32 31 32 33 35 34 30 28 23 17 8 0 353 351 350 343 339 339
137 136 142 131 127 129 124 112 115 122 121 146 124 106 115 131 127 127 147 148 165 169 155 153 145 138 141 178 132 130 129 117 130 116 104 96 101 127 106 95 79 75 80 78 61 39 42 37 38 39 42 42 43 43 48 43 45 47 46 44 42 40 36 34 32 31 30 30 30 32 34 34 33 30 27 26 20 15 3 4 2 359 353 349 347
132 129 142 118 105 110 96 112 113 105 97 137 93 117 128 121 126 127 125 140 155 152 173 165 137 135 145 162 154 136 138 136 104 119 109 106 115 89 72 100 103 92 96 82 70 50 38 36 40 44 42 39 40 39 39 41 42 44 44 41 37 35 32 31 28 27 27 30 33 35 35 35 36 34 32 30 25 19 18 10 6 2 357 352 nan
123 126 125 120 128 130 135 117 130 115 113 124 134 103 103 136 117 120 125 112 126 114 114 123 164 167 169 143 129 135 131 130 113 105 102 84 80 102 94 74 94 96 73 83 83 69 49 35 37 44 37 25 36 38 37 39 40 42 40 37 32 31 29 29 28 30 33 34 36 36 37 38 38 36 34 30 24 22 18 13 6 4 356 352 nan
121 120 119 123 122 120 124 116 106 117 120 130 70 103 117 127 106 117 119 122 108 104 127 134 139 125 114 121 121 106 94 107 108 94 91 99 93 89 120 97 79 83 87 88 73 64 39 38 44 48 40 12 33 36 37 36 36 36 36 34 31 28 28 31 35 38 36 37 38 38 38 38 38 37 32 28 25 22 18 15 12 5 0 nan 360
117 116 116 117 115 119 115 112 113 125 125 93 105 87 84 72 95 126 113 117 117 112 122 108 103 107 108 102 104 99 112 94 80 85 84 82 75 80 101 115 92 64 49 27 44 51 43 26 37 32 39 36 31 27 31 31 31 30 32 33 33 32 34 39 43 44 45 44 42 41 40 38 36 36 33 29 26 23 20 18 16 11 10 9 nan
116 114 115 114 115 116 114 112 111 129 109 114 115 113 113 119 121 115 129 119 113 120 112 109 115 112 123 112 99 95 93 101 97 87 82 86 92 80 79 73 83 69 83 66 37 41 33 30 38 59 50 53 45 27 24 24 20 19 27 30 34 35 37 42 43 43 44 43 41 40 41 39 36 33 29 27 25 24 24 22 19 20 23 25 24
115 113 117 118 116 117 116 121 108 104 110 122 131 111 112 116 111 122 124 121 121 97 97 107 113 117 95 100 89 96 94 86 82 80 77 80 93 95 60 72 46 66 57 69 57 40 30 39 42 51 55 54 52 34 35 29 353 14 22 27 29 30 34 38 42 43 44 43 41 38 36 32 30 29 28 26 26 26 24 24 23 26 29 nan nan
121 116 119 120 119 120 122 120 116 113 112 112 102 104 103 102 109 106 93 114 95 116 111 96 100 116 109 95 94 86 109 100 70 nan 85 80 68 68 53 83 70 45 71 74 75 51 51 37 45 44 43 46 44 46 46 20 15 23 20 25 24 27 32 37 42 45 45 45 41 37 28 27 28 27 28 27 26 25 23 22 23 25 27 nan 28
126 120 116 124 118 113 118 116 111 115 114 110 112 118 112 107 96 105 104 103 128 128 119 113 107 97 107 105 109 106 104 105 102 91 101 94 70 65 55 61 61 41 60 59 47 64 54 56 34 40 39 42 46 45 44 39 29 26 26 22 22 25 31 34 39 41 43 42 41 33 30 26 25 25 26 28 28 26 25 23 24 24 24 nan nan
123 120 118 116 114 108 107 108 109 108 106 110 111 106 105 103 120 114 119 115 121 124 121 106 123 95 75 87 78 98 103 94 97 91 92 95 110 92 55 67 63 48 46 56 53 59 57 60 46 49 27 39 42 41 40 39 26 20 344 358 10 20 27 29 32 35 37 39 38 35 31 27 25 25 26 26 28 28 26 26 26 26 25 nan nan
124 121 116 112 109 106 102 103 107 103 100 100 103 104 120 124 117 131 124 126 117 111 115 112 87 102 91 89 87 90 113 nan 101 105 95 101 85 88 78 39 61 60 56 57 58 57 46 35 60 53 50 30 32 36 41 37 35 28 21 6 17 21 24 27 30 31 33 34 34 33 31 29 27 25 25 26 26 26 27 28 28 28 27 nan nan
121 119 112 110 108 107 100 101 101 102 101 99 97 99 105 112 114 114 113 120 114 112 116 120 117 104 101 101 110 95 80 82 73 77 93 102 92 81 69 57 77 57 72 90 78 64 42 41 42 62 56 39 30 38 45 45 39 36 25 9 17 20 23 25 27 30 31 33 32 31 29 27 26 24 23 24 24 24 24 26 26 25 24 nan nan
117 116 118 111 110 108 104 97 99 101 104 103 102 103 101 106 106 107 115 118 122 116 108 111 107 118 101 88 89 100 102 91 95 78 84 88 89 92 100 93 54 43 62 55 48 66 65 53 18 36 38 41 43 40 40 44 46 37 22 5 14 18 21 23 26 29 31 31 30 28 26 26 24 24 23 23 23 23 23 23 23 21 20 20 20
126 122 117 113 112 111 108 100 102 107 110 113 111 105 96 96 100 105 113 116 127 123 121 119 111 107 98 79 73 65 62 97 105 129 106 80 83 88 76 80 100 92 69 82 74 69 61 56 65 61 58 54 48 46 43 39 34 22 355 8 12 17 19 23 25 28 28 27 27 27 27 27 26 25 25 25 25 24 24 22 21 19 19 18 17
132 129 118 108 114 114 110 109 112 113 109 116 115 114 113 104 108 117 118 119 128 140 133 123 106 73 85 63 57 75 75 94 98 74 83 104 111 98 91 82 80 81 83 53 42 53 54 55 49 52 50 48 45 43 42 40 32 359 10 10 15 18 19 22 24 25 27 26 26 28 29 29 29 28 26 26 26 25 23 21 20 19 18 17 16
135 127 120 103 115 111 107 117 130 122 122 123 124 131 134 129 129 115 123 128 130 133 137 104 83 92 70 78 78 81 87 95 111 110 118 113 91 95 102 115 101 83 71 92 86 75 66 53 46 44 42 42 43 39 44 40 43 9 21 13 16 18 22 23 25 27 28 28 28 28 28 28 28 26 25 24 23 22 22 20 19 19 18 17 16
135 133 128 106 110 104 113 118 130 125 120 121 123 125 125 131 128 124 116 127 129 101 97 83 81 70 79 87 90 101 106 98 82 89 90 80 82 90 109 110 103 100 91 73 56 63 52 46 46 46 51 49 47 45 38 46 49 10 21 26 16 20 23 26 29 29 30 29 29 27 26 26 26 24 23 21 20 20 19 18 19 18 17 16 15
148 160 142 147 111 140 112 116 127 134 119 110 110 104 108 114 122 112 113 112 67 65 42 57 57 59 65 75 102 110 128 135 126 121 119 126 130 129 128 118 113 112 96 71 62 53 68 69 52 42 35 39 52 56 53 49 54 12 21 30 27 21 26 27 29 30 29 29 27 26 25 24 22 22 21 20 18 17 16 16 16 16 15 14 13
172 173 161 123 116 109 85 85 110 108 109 101 97 99 90 90 93 91 83 79 64 42 51 56 58 59 63 70 84 107 127 125 130 127 134 139 146 144 133 118 113 112 114 101 88 72 55 54 46 53 42 38 45 52 49 54 57 11 25 29 35 27 25 27 27 27 27 26 25 23 22 21 20 19 18 17 16 14 13 13 13 13 13 12 10
182 187 178 150 114 84 100 96 104 105 98 97 95 94 89 85 84 85 82 78 65 59 57 57 66 61 51 54 60 79 126 165 159 149 167 167 154 144 134 126 126 112 105 100 89 88 89 89 88 28 49 42 40 53 54 49 46 24 34 38 37 37 23 24 24 25 24 23 22 20 18 17 17 16 15 14 12 12 11 10 9 10 10 10 9
178 192 194 208 134 103 118 115 112 107 103 98 94 90 85 85 81 80 78 79 72 64 57 58 54 55 59 54 43 48 39 45 344 138 177 208 147 134 131 117 109 106 104 101 98 92 87 80 75 44 39 39 45 53 55 49 44 35 43 40 38 34 30 18 21 21 21 20 19 17 16 15 14 13 11 11 12 12 12 9 9 10 11 10 10
189 189 210 175 151 141 132 125 125 112 105 100 94 87 77 79 74 67 60 57 66 54 46 45 45 40 43 46 42 47 43 45 154 181 237 250 202 139 136 131 114 104 102 96 96 87 88 87 86 95 36 40 55 55 51 46 37 32 40 40 36 36 35 19 18 18 17 17 16 14 14 14 14 12 11 10 10 13 11 10 12 14 12 11 10
196 194 199 172 162 150 144 134 126 117 109 99 83 74 69 72 71 66 33 20 34 31 28 24 25 17 20 27 28 28 23 26 34 148 203 220 216 171 131 125 112 100 96 93 87 92 92 90 91 86 87 75 62 56 56 56 49 21 33 34 33 32 25 29 18 17 16 16 14 12 12 13 13 13 12 12 13 14 13 11 12 13 11 9 9
205 205 192 180 178 169 157 151 134 136 123 104 93 69 58 48 56 56 62 358 6 11 4 23 26 10 6 13 18 17 17 23 20 49 182 212 220 189 149 131 115 107 96 88 87 87 82 79 83 86 87 85 77 70 65 57 48 40 32 33 31 30 28 24 23 14 16 16 14 12 12 12 13 13 nan nan nan 16 13 12 12 nan nan nan nan
210 214 204 185 187 187 174 171 162 151 154 122 70 46 26 19 19 357 8 13 354 9 5 1 10 9 0 5 14 16 14 19 30 50 102 175 192 187 171 144 133 118 99 94 86 88 92 89 87 88 84 76 72 58 55 54 55 49 47 41 31 27 24 24 20 18 10 14 13 12 11 12 12 11 12 13 16 15 12 12 12 11 10 9 8
216 213 222 197 198 198 186 189 192 182 197 189 114 41 351 1 4 4 348 352 2 5 8 12 10 359 4 5 10 10 7 15 23 48 97 153 176 175 166 163 136 117 109 91 89 91 95 97 96 90 78 71 70 66 55 51 46 43 42 39 34 28 26 25 23 20 16 8 12 11 10 10 10 10 10 11 nan nan 12 10 10 9 9 9 9
219 219 219 214 207 205 196 198 204 205 219 226 245 7 355 349 346 349 348 339 348 0 10 14 11 5 5 1 10 13 11 17 25 46 89 144 171 175 163 161 155 135 130 120 94 94 99 101 95 88 85 88 87 77 62 52 53 47 41 35 31 29 27 24 23 22 19 14 5 9 10 8 7 8 8 8 9 9 9 8 7 7 9 9 9
221 229 223 219 215 213 204 204 211 216 227 241 270 333 334 328 333 334 329 329 342 350 358 7 13 8 7 9 6 11 17 24 22 30 70 122 162 169 164 164 155 143 138 127 112 109 112 109 107 95 84 75 69 59 52 52 45 38 34 33 33 30 27 24 18 16 19 20 13 8 6 5 5 6 7 6 7 7 6 6 6 6 8 8 7
224 232 235 225 220 221 211 208 213 220 226 241 272 307 330 326 314 317 314 324 336 342 346 359 10 10 12 11 9 14 24 30 30 31 71 115 154 162 161 162 160 157 146 129 123 118 120 119 112 100 74 69 60 48 46 47 45 37 36 32 27 23 23 24 18 11 7 6 360 358 359 1 5 6 5 5 7 7 6 4 4 5 6 7 6
237 234 243 237 226 225 221 213 217 223 227 242 263 294 309 308 303 307 316 321 330 334 343 357 8 10 13 15 12 18 34 44 48 51 73 116 153 160 167 164 159 156 150 141 130 121 117 112 98 75 67 57 50 50 35 33 34 31 33 33 27 18 14 15 14 10 7 5 5 4 3 5 5 358 1 7 6 7 7 5 4 3 3 2 2
246 245 247 249 239 233 230 221 221 225 231 244 272 291 298 297 294 304 312 320 335 343 347 354 9 17 15 20 25 20 32 45 55 65 89 139 163 164 174 174 169 162 155 152 144 139 133 122 103 92 76 67 48 40 30 22 26 19 20 26 27 20 14 11 9 5 1 1 4 5 359 357 1 7 6 2 5 7 6 5 5 3 2 358 358
245 247 245 251 251 245 240 232 227 228 235 249 268 287 293 299 296 309 317 327 341 350 353 0 5 15 28 35 34 45 30 16 18 25 103 177 174 172 179 182 177 171 167 164 157 157 157 141 121 103 78 54 45 41 35 18 18 22 12 20 22 17 16 18 5 359 358 1 6 8 358 352 359 360 355 353 352 358 3 5 2 5 2 356 355
251 244 244 246 254 255 249 244 234 230 234 244 268 300 298 290 303 304 311 321 339 354 356 1 10 8 23 43 66 68 102 151 320 352 23 139 177 171 180 190 189 183 178 171 167 169 167 152 130 121 92 54 34 24 20 18 15 17 18 13 18 16 12 15 9 359 350 355 2 2 357 353 359 3 358 354 357 358 351 348 349 355 353 355 355
256 252 248 252 251 256 257 250 245 235 238 246 285 295 304 312 304 309 310 315 334 353 2 355 358 10 21 37 95 112 198 250 268 318 349 4 122 140 152 165 184 186 177 172 179 180 171 155 146 126 99 70 38 14 5 12 15 11 9 4 12 9 6 9 15 357 344 345 354 4 3 353 357 5 359 355 1 1 359 359 354 358 1 350 349
257 258 259 254 248 250 253 255 251 244 242 260 285 298 306 315 311 303 311 313 322 339 349 356 350 353 13 48 103 162 166 154 132 300 319 347 14 128 142 154 151 148 165 174 181 182 178 172 158 137 133 56 18 351 352 356 354 1 9 8 4 6 8 7 3 2 343 339 350 4 13 354 355 2 359 355 0 3 3 357 2 355 355 354 350
260 259 259 258 254 248 248 253 252 252 246 268 285 299 307 313 320 308 300 305 315 327 335 346 351 345 339 331 159 177 182 215 250 137 222 270 327 42 16 137 146 157 161 146 146 179 183 169 157 133 315 265 349 347 338 337 336 6 8 11 2 0 4 4 358 354 350 341 348 4 12 357 350 357 2 358 2 2 1 4 7 3 357 354 351
262 263 264 263 255 251 246 246 248 248 246 267 287 296 303 310 314 307 289 292 309 318 327 336 336 344 340 318 226 198 184 179 194 203 200 183 223 251 249 238 230 230 273 74 71 49 337 261 97 75 333 332 342 339 336 332 346 355 360 9 2 5 4 0 351 348 347 345 350 359 9 359 352 1 2 358 358 357 355 359 359 353 352 355 353
267 265 265 263 258 256 253 247 247 250 246 272 286 294 299 307 309 304 304 294 287 296 304 321 331 336 337 332 269 202 198 188 197 217 209 210 212 216 236 242 254 244 249 260 272 281 289 302 341 2 350 335 335 338 335 337 348 349 351 359 1 4 2 355 349 345 347 344 347 351 2 355 349 358 358 353 352 353 352 353 359 359 354 352 353
266 265 263 261 263 261 258 254 249 251 249 272 283 290 296 302 302 286 300 302 296 292 300 315 329 328 339 332 259 221 199 190 218 259 236 213 203 210 215 220 224 229 226 231 261 296 302 305 321 335 333 333 336 336 327 327 329 336 347 351 345 347 355 355 350 342 338 334 336 345 354 354 348 353 355 354 352 351 349 351 359 359 356 352 354
269 269 267 265 261 262 263 258 255 252 250 265 279 286 290 296 284 281 293 292 291 298 300 316 333 346 347 343 294 216 208 211 238 273 278 244 201 196 207 211 222 223 225 236 273 299 308 327 340 340 343 335 311 307 322 331 330 327 328 338 345 346 348 351 347 340 334 328 333 342 346 347 341 342 350 356 354 350 350 352 350 353 355 353 354
267 268 266 263 263 264 267 265 263 258 252 264 280 283 288 291 289 284 285 285 286 290 295 306 311 323 345 3 341 247 208 217 256 285 288 283 243 217 216 217 227 234 241 250 252 281 322 337 329 307 293 304 317 314 316 334 345 330 330 340 344 339 343 342 342 339 334 330 332 331 337 344 341 338 341 347 354 352 345 343 344 346 348 343 349
262 262 264 265 266 266 269 270 266 266 255 262 280 282 288 291 287 277 280 278 280 284 287 293 304 309 314 316 339 315 244 231 256 275 286 289 274 247 241 234 232 239 248 246 252 252 262 279 286 292 298 302 307 311 320 341 347 337 334 341 340 337 336 336 335 335 336 328 320 314 331 337 335 336 334 338 346 350 347 341 341 345 346 345 344